Hourly Data Report for July 04, 2017

All times are specified in Local Standard Time (LST). Add 1 hour to adjust for Daylight Saving Time where and when it is observed.

LUTSELK'E CS
NORTHWEST TERRITORIES

62°24'56.030" N
110°41'25.070" W
178.90 m
220L002
71529
XLU

Download Data

Hourly Data (July 2017)
Hourly Data Report for July 4, 2017
Temp Definition
°C
Dew Point Temp Definition
°C
Rel Hum Definition
%
Wind Dir Definition
10's deg

Wind Spd Definition
km/h
Visibility Definition
km
Stn Press Definition
kPa
Hmdx Definition


Wind Chill Definition


Weather Definition


TIME
00:00 11.8 10.8 94 LegendMM LegendMM   97.80     LegendNANA
01:00 11.3 10.3 94 LegendMM LegendMM   97.65     LegendNANA
02:00 12.7 11.8 94 LegendMM LegendMM   97.65     LegendNANA
03:00 11.2 10.3 94 LegendMM LegendMM   97.72     LegendNANA
04:00 12.3 11.4 94 LegendMM LegendMM   97.72     LegendNANA
05:00 13.5 12.5 94 LegendMM LegendMM   97.70     LegendNANA
06:00 14.7 12.3 85 LegendMM LegendMM   97.71     LegendNANA
07:00 14.2 12.2 88 LegendMM LegendMM   97.76     LegendNANA
08:00 14.5 12.1 86 LegendMM LegendMM   97.73     LegendNANA
09:00 15.7 12.5 81 LegendMM LegendMM   97.75     LegendNANA
10:00 16.0 12.2 78 LegendMM LegendMM   97.77     LegendNANA
11:00 16.9 12.2 74 LegendMM LegendMM   97.78     LegendNANA
12:00 16.4 11.8 74 LegendMM LegendMM   97.81     LegendNANA
13:00 16.7 11.5 71 LegendMM LegendMM   97.82     LegendNANA
14:00 15.7 11.1 75 LegendMM LegendMM   97.83     LegendNANA
15:00 17.1 11.3 69 LegendMM LegendMM   97.84     LegendNANA
16:00 17.7 11.7 68 LegendMM LegendMM   97.84     LegendNANA
17:00 17.4 10.7 65 LegendMM LegendMM   97.84     LegendNANA
18:00 17.3 10.9 66 LegendMM LegendMM   97.83     LegendNANA
19:00 16.6 11.7 73 LegendMM LegendMM   97.87     LegendNANA
20:00 15.7 11.3 75 LegendMM LegendMM   97.90     LegendNANA
21:00 14.2 10.7 79 LegendMM LegendMM   97.96     LegendNANA
22:00 12.3 10.0 86 LegendMM LegendMM   97.98     LegendNANA
23:00 12.2 10.3 88 LegendMM LegendMM   98.03     LegendNANA

Notes on Data Quality.

Legend

  • E = Estimated
  • M = Missing
  • NA = Not Available
  • ‡ = Partner data that is not subject to review by the National Climate Archives
Date modified: